Date,TemperatureHighF,TemperatureAvgF,TemperatureLowF,DewpointHighF,DewpointAvgF,DewpointLowF,HumidityHigh,HumidityAvg,HumidityLow,PressureMaxIn,PressureMinIn,WindSpeedMaxMPH,WindSpeedAvgMPH,GustSpeedMaxMPH,PrecipitationSumIn
2013-1-1,49,41,34,45,36,22,96,81,60,30.12,29.94,6,0,6,0.33
2013-1-2,43,39,35,42,34,30,96,82,65,30.15,29.97,6,0,6,0.05
2013-1-3,40,34,28,35,28,-46,91,78,60,30.27,30.09,6,0,6,0.05
2013-1-4,40,30,25,20,16,12,74,57,42,30.36,30.21,10,1,10,0.05
2013-1-5,46,34,23,26,18,13,66,53,36,30.39,30.15,8,1,8,0.00
2013-1-6,44,38,35,35,29,24,81,69,52,30.21,30.03,13,2,13,0.04
2013-1-7,48,37,27,26,22,19,73,55,37,30.36,30.15,10,2,10,0.04
2013-1-8,49,37,26,28,24,17,75,61,40,30.41,30.27,6,1,6,0.00
2013-1-9,51,41,31,46,35,26,88,79,73,30.47,30.36,4,0,4,0.00
2013-1-10,59,51,46,52,47,44,97,88,70,30.53,30.39,57,1,57,0.00
2013-1-11,54,51,49,50,48,38,97,91,67,30.33,30.15,10,1,10,0.05
2013-1-12,67,56,48,60,52,47,100,90,62,30.24,30.09,6,1,6,0.05
2013-1-13,68,59,51,53,49,46,95,71,50,30.15,30.03,12,2,12,0.84
2013-1-14,58,54,46,56,53,45,99,95,82,30.24,30.03,57,0,57,1.61
2013-1-15,80,47,44,50,47,44,100,99,96,30.18,29.97,10,2,10,1.62
2013-1-16,59,50,45,57,48,45,100,96,78,30.09,29.94,8,0,8,1.32
2013-1-17,50,42,32,50,41,28,100,96,86,30.21,29.79,8,1,8,1.53
2013-1-18,40,32,26,28,22,18,87,69,46,30.41,30.21,13,1,13,1.32
2013-1-19,47,34,24,31,24,21,87,70,40,30.36,30.15,6,1,6,0.17
2013-1-20,49,39,30,30,24,18,78,56,41,30.15,30.03,12,2,12,1.32
2013-1-21,46,35,27,26,20,7,79,55,41,30.12,29.94,14,3,14,0.00
2013-1-22,28,23,18,8,2,-1,45,39,33,30.15,30.03,14,3,14,0.00
2013-1-23,38,30,22,21,10,0,58,44,37,30.27,30.03,14,2,14,0.00
2013-1-24,39,30,21,24,11,1,60,45,36,30.30,30.03,17,3,17,0.00
2013-1-25,36,24,18,34,15,0,92,69,41,30.33,29.97,11,2,11,0.04
2013-1-26,41,34,27,33,24,18,91,68,49,30.30,30.03,7,1,7,0.09
2013-1-27,38,31,24,27,22,0,100,71,54,30.41,30.27,9,2,9,0.09
2013-1-28,57,43,30,44,34,25,87,72,54,30.39,30.21,13,1,13,0.08
2013-1-29,59,48,39,52,42,35,89,79,65,30.27,30.03,39,4,39,0.08
2013-1-30,65,56,43,55,51,39,97,83,69,30.03,29.56,64,11,64,2.11
2013-1-31,42,32,28,39,22,16,89,67,51,29.97,29.59,50,6,50,0.05
2013-2-1,36,24,19,26,10,4,78,54,45,30.24,29.88,14,3,14,2.12
2013-2-2,35,27,19,28,15,4,85,61,44,30.27,29.97,8,1,8,0.00
2013-2-3,38,31,25,30,23,12,82,71,58,30.03,29.85,13,2,13,0.00
2013-2-4,45,31,18,26,18,10,74,59,43,30.06,29.94,5,1,5,0.12
2013-2-5,47,39,33,34,28,24,74,64,51,30.00,29.91,14,2,14,0.04
2013-2-6,50,41,34,33,24,17,77,53,33,30.21,30.00,11,2,11,16.92
2013-2-7,44,40,33,37,28,18,95,65,41,30.21,30.00,15,4,15,16.92
2013-2-8,48,41,33,45,34,22,97,80,51,30.15,29.91,28,4,28,16.92
2013-2-9,49,36,27,23,18,13,70,50,29,30.30,30.15,17,3,17,16.92
2013-2-10,48,40,32,43,24,17,96,54,33,30.36,30.12,15,2,15,16.92
2013-2-11,54,48,43,53,40,26,98,77,45,30.12,30.00,10,1,10,0.04
2013-2-12,53,43,35,32,24,18,80,47,33,30.15,29.94,10,1,10,0.05
2013-2-13,41,38,37,38,34,32,92,87,79,29.94,29.71,10,2,10,0.08
2013-2-14,48,41,34,25,23,20,64,49,39,30.06,29.91,10,2,10,17.79
2013-2-15,54,39,30,34,28,23,80,68,39,30.12,29.94,15,2,15,0.21
2013-2-16,34,29,22,24,18,6,72,62,52,30.03,29.79,15,2,15,0.21
2013-2-17,31,24,18,11,6,2,53,46,40,30.18,29.91,20,3,20,0.00
2013-2-18,47,34,22,25,15,6,56,45,36,30.33,30.09,12,2,12,0.00
2013-2-19,46,39,31,38,23,11,83,55,38,30.12,29.85,53,6,53,0.04
2013-2-20,43,33,25,14,9,4,44,38,30,30.12,30.00,38,5,38,0.00
2013-2-21,57,38,23,31,16,6,82,42,27,30.18,30.03,13,2,13,0.29
2013-2-22,41,36,33,35,32,26,95,83,62,30.21,30.03,17,3,17,0.29
2013-2-23,58,46,37,49,41,34,96,84,65,30.09,29.85,5,1,5,0.21
2013-2-24,50,42,32,37,26,17,79,55,32,30.06,29.85,9,1,9,0.21
2013-2-25,43,35,29,24,19,17,72,52,42,30.12,29.94,76,6,76,0.21
2013-2-26,40,35,30,37,32,23,95,89,72,29.94,29.56,66,12,66,0.45
2013-2-27,50,40,34,36,28,24,95,63,45,29.82,29.68,12,3,12,0.21
2013-2-28,36,32,30,26,22,19,71,65,60,29.91,29.74,15,3,15,0.21
2013-3-1,35,32,30,27,24,21,80,73,68,29.94,29.85,8,2,8,0.21
2013-3-2,37,31,25,27,23,15,81,72,58,29.94,29.79,11,2,11,0.04
2013-3-3,32,25,21,16,12,9,67,57,47,29.97,29.88,12,2,12,0.00
2013-3-4,46,33,23,20,14,8,57,45,33,30.12,29.97,11,2,11,0.05
2013-3-5,41,36,31,40,29,15,96,77,45,30.03,29.65,13,1,13,1.11
2013-3-6,34,27,23,27,20,16,90,75,59,30.12,29.71,16,3,16,0.00
2013-3-7,37,30,26,24,21,20,81,71,56,30.30,30.09,9,1,9,0.09
2013-3-8,41,31,22,22,20,17,81,63,44,30.33,30.21,6,1,6,0.00
2013-3-9,57,41,24,29,23,18,79,52,31,30.33,30.21,10,2,10,20.57
2013-3-10,61,50,40,33,27,21,51,41,32,30.27,30.15,15,3,15,0.00
2013-3-11,52,49,46,48,41,28,97,76,43,30.15,29.85,14,2,14,0.33
2013-3-12,49,43,35,49,35,24,98,75,46,30.03,29.79,10,1,10,0.45
2013-3-13,40,34,27,28,19,10,74,54,43,30.18,29.97,14,2,14,0.00
2013-3-14,43,31,23,18,12,8,55,45,34,30.30,30.15,10,2,10,0.00
2013-3-15,61,46,30,35,26,11,66,46,32,30.18,29.94,15,2,15,0.00
2013-3-16,68,60,53,42,38,35,52,44,36,29.97,29.79,39,6,39,0.00
2013-3-17,69,59,44,44,41,39,82,53,35,30.03,29.88,13,3,13,0.00
2013-3-18,46,41,35,44,37,32,96,87,65,30.06,29.82,14,3,14,0.59
2013-3-19,50,43,36,45,28,11,99,59,34,30.09,29.88,20,3,20,0.00
2013-3-20,49,38,29,22,14,8,63,38,29,30.15,29.79,15,2,15,0.00
2013-3-21,33,27,20,20,8,4,63,46,42,29.91,29.79,11,2,11,0.04
2013-3-22,48,33,20,24,13,5,56,44,31,30.03,29.88,9,2,9,0.00
2013-3-23,53,43,37,38,31,24,77,64,53,30.03,29.85,13,1,13,0.00
2013-3-24,46,40,33,41,36,31,96,85,64,29.91,29.50,18,5,18,0.53
2013-3-25,34,30,26,32,24,21,94,78,62,29.85,29.53,11,2,11,0.00
2013-3-26,38,30,25,26,21,18,83,71,57,30.12,29.85,9,2,9,0.05
2013-3-27,37,32,28,22,18,16,68,58,49,30.24,30.09,10,2,10,0.04
2013-3-28,44,35,29,22,18,15,58,50,40,30.27,30.18,10,2,10,0.04
2013-3-29,54,38,26,33,25,18,80,61,33,30.33,30.21,10,2,10,0.08
2013-3-30,59,47,38,41,35,32,89,66,39,30.24,30.03,8,1,8,0.04
2013-3-31,59,50,44,51,44,34,96,81,54,30.06,29.85,10,1,11,0.71
2013-4-1,58,48,38,47,37,24,94,68,43,30.03,29.91,13,2,13,0.04
2013-4-2,52,43,34,25,21,16,56,42,31,30.15,30.03,11,2,11,0.04
2013-4-3,57,44,31,25,18,10,46,35,28,30.24,30.12,9,2,9,0.00
2013-4-4,45,37,32,36,25,12,98,65,32,30.24,29.91,18,6,18,0.12
2013-4-5,51,42,36,39,33,28,90,72,46,30.09,29.91,10,1,10,0.05
2013-4-6,61,49,35,34,30,27,75,52,34,30.24,30.06,11,2,11,0.00
2013-4-7,67,54,41,39,34,26,61,47,35,30.24,30.09,10,2,10,0.00
2013-4-8,73,58,43,46,41,35,78,55,35,30.21,30.06,10,1,10,0.00
2013-4-9,76,63,48,50,45,41,81,55,34,30.27,30.15,7,1,8,0.00
2013-4-10,80,66,53,51,48,44,77,54,32,30.18,29.97,9,1,9,0.00
2013-4-11,77,65,54,59,49,44,91,59,33,30.03,29.74,14,2,14,23.64
2013-4-12,67,58,48,58,47,32,94,70,38,29.91,29.68,13,2,13,1.00
2013-4-13,66,54,43,36,32,28,68,46,27,30.09,29.91,10,2,10,1.00
2013-4-14,71,54,0,44,34,0,65,48,2,30.12,29.97,15,2,15,0.00
2013-4-15,64,56,50,51,48,42,91,76,56,30.24,29.97,15,4,15,0.00
2013-4-16,76,64,54,54,51,47,86,65,37,30.33,30.18,10,2,10,0.00
2013-4-17,68,61,56,61,55,50,93,81,65,30.33,30.15,10,0,10,0.49
2013-4-18,72,64,56,58,53,29,89,69,45,30.18,29.97,12,2,12,26.16
2013-4-19,70,60,44,59,52,33,89,74,57,30.15,29.76,23,3,23,0.92
2013-4-20,53,45,36,34,26,21,66,49,36,30.30,29.97,12,2,12,27.08
2013-4-21,57,46,34,30,27,23,71,48,34,30.44,30.27,14,3,14,0.00
2013-4-22,60,50,41,35,31,24,70,49,37,30.41,30.18,12,4,12,0.00
2013-4-23,68,54,38,40,32,22,56,43,31,30.27,30.09,10,2,10,0.00
2013-4-24,73,58,44,52,43,36,77,60,36,30.15,30.03,12,2,12,0.00
2013-4-25,62,51,41,42,31,22,74,49,29,30.36,30.09,8,1,8,0.00
2013-4-26,65,53,38,42,30,23,67,42,31,30.41,30.27,10,2,10,0.00
2013-4-27,55,52,49,50,46,41,92,81,66,30.39,30.24,6,1,6,0.29
2013-4-28,51,49,46,50,46,38,97,90,66,30.27,30.06,57,1,57,1.24
2013-4-29,69,58,50,55,50,44,99,76,44,30.15,29.97,8,1,8,0.75
2013-4-30,69,60,51,54,50,45,93,71,47,30.21,30.03,11,3,11,0.75
2013-5-1,65,58,53,52,48,44,85,71,49,30.30,30.21,12,4,12,0.00
2013-5-2,62,55,51,52,50,47,94,84,67,30.33,30.24,12,4,12,0.00
2013-5-3,58,53,50,50,46,41,94,77,54,30.27,30.09,15,4,15,0.00
2013-5-4,53,47,44,46,41,33,97,80,59,30.12,29.97,18,5,18,0.20
2013-5-5,50,47,44,50,46,44,100,97,91,30.06,29.82,19,5,19,2.32
2013-5-6,61,54,47,51,45,34,100,75,39,29.94,29.79,15,3,15,0.67
2013-5-7,65,52,44,49,43,39,93,73,43,30.00,29.91,8,1,8,0.16
2013-5-8,65,56,50,56,52,48,98,87,60,30.12,29.97,11,0,11,0.21
2013-5-9,72,60,47,56,49,45,98,72,41,30.18,30.09,6,1,6,0.00
2013-5-10,76,61,50,61,53,46,94,76,43,30.18,30.03,9,0,9,0.17
2013-5-11,71,61,56,61,56,51,98,86,59,30.06,29.91,6,0,6,0.20
2013-5-12,63,55,46,52,38,26,81,55,37,30.12,29.97,8,1,8,0.00
2013-5-13,60,49,39,32,28,25,65,45,31,30.18,30.09,10,1,10,0.00
2013-5-14,71,56,39,42,35,25,65,47,34,30.27,30.09,8,1,8,0.00
2013-5-15,82,68,54,53,47,41,68,49,32,30.18,30.03,8,1,9,0.00
2013-5-16,78,66,59,52,47,43,65,50,35,30.15,30.06,7,0,7,0.00
2013-5-17,77,65,54,57,52,47,79,62,43,30.21,30.09,6,0,6,0.00
2013-5-18,66,62,59,61,57,49,93,84,61,30.21,30.09,4,0,4,0.54
2013-5-19,75,64,60,65,61,58,100,91,66,30.21,30.06,10,1,10,1.79
2013-5-20,76,66,58,67,60,58,100,83,55,30.21,30.09,5,0,5,0.34
2013-5-21,80,68,58,64,58,55,93,73,43,30.18,30.03,6,1,6,0.09
2013-5-22,74,64,58,64,59,55,94,84,62,30.12,29.97,6,0,6,0.20
2013-5-23,75,64,59,64,56,49,97,77,45,30.09,29.94,10,1,10,0.04
2013-5-24,61,57,49,51,42,32,84,59,39,30.30,30.00,12,1,12,0.05
2013-5-25,69,55,44,39,35,32,67,48,29,30.36,30.24,6,1,6,0.04
2013-5-26,69,60,52,44,41,38,68,50,34,30.30,30.21,6,1,6,0.04
2013-5-27,76,62,49,54,48,42,79,62,45,30.33,30.18,9,1,9,0.04
2013-5-28,80,67,56,58,54,51,85,63,43,30.33,30.21,6,1,7,0.00
2013-5-29,80,68,57,58,54,51,86,64,38,30.33,30.21,10,1,10,0.00
2013-5-30,79,67,56,58,55,52,85,66,46,30.36,30.21,9,1,9,0.00
2013-5-31,81,68,58,60,55,50,86,63,40,30.33,30.18,8,1,8,0.00
2013-6-1,83,70,60,62,55,50,86,61,32,30.24,30.09,10,1,10,0.00
2013-6-2,70,66,63,65,61,55,95,85,65,30.15,30.00,4,0,4,0.54
2013-6-3,77,67,61,65,59,52,97,76,46,30.09,29.97,8,0,8,0.00
2013-6-4,75,66,59,60,56,54,87,71,52,30.21,30.06,12,2,12,0.00
2013-6-5,77,67,61,62,59,55,92,75,55,30.27,30.06,10,2,10,0.12
2013-6-6,78,68,62,65,63,60,96,84,56,30.12,29.85,4,1,4,0.12
2013-6-7,75,67,62,67,63,59,98,89,63,29.97,29.79,6,0,6,0.94
2013-6-8,76,66,59,65,60,56,99,80,53,30.21,29.94,6,0,6,0.20
2013-6-9,77,66,60,66,61,57,97,83,56,30.27,30.15,57,1,57,0.54
2013-6-10,73,67,62,69,62,54,100,85,56,30.15,30.00,6,0,6,1.00
2013-6-11,79,69,61,62,58,54,94,71,44,30.15,30.03,58,0,58,0.95
2013-6-12,85,72,63,69,62,57,88,72,47,30.15,30.06,8,1,8,0.00
2013-6-13,85,71,63,67,63,58,99,79,44,30.06,29.88,11,1,11,2.08
2013-6-14,73,64,58,62,53,48,95,69,46,30.15,29.94,10,1,10,2.00
2013-6-15,80,66,52,55,52,48,84,63,42,30.24,30.15,6,0,6,0.00
2013-6-16,84,71,60,60,58,54,85,65,41,30.24,30.12,7,0,7,0.00
2013-6-17,79,71,65,66,63,60,91,77,58,30.15,30.03,5,0,5,0.00
2013-6-18,75,67,63,68,62,59,90,84,73,30.06,29.91,5,0,5,0.21
2013-6-19,77,67,58,61,58,54,93,74,47,30.24,30.03,6,0,6,0.00
2013-6-20,78,68,58,61,57,54,89,71,48,30.33,30.21,12,1,12,0.00
2013-6-21,78,69,61,60,56,52,86,65,42,30.39,30.27,57,1,57,0.00
2013-6-22,80,69,58,58,53,47,88,61,32,30.36,30.21,8,1,8,0.00
2013-6-23,81,69,59,61,56,54,83,65,43,30.33,30.21,6,0,6,0.00
2013-6-24,84,72,62,65,61,58,88,71,44,30.30,30.18,5,0,5,0.04
2013-6-25,83,70,63,67,64,60,93,81,47,30.27,30.12,5,0,5,40.98
2013-6-26,83,71,63,70,63,59,95,77,55,30.18,30.03,8,0,8,0.50
2013-6-27,79,70,63,70,64,60,95,83,67,30.06,29.88,6,0,6,0.37
2013-6-28,83,71,64,67,64,58,94,80,48,29.94,29.79,6,0,6,0.21
2013-6-29,80,69,60,66,58,50,98,71,40,29.85,29.79,6,0,6,0.00
2013-6-30,80,68,59,62,57,53,90,69,43,29.94,29.82,8,1,8,0.00
2013-7-1,76,68,63,65,62,60,99,84,61,30.09,29.88,7,1,7,1.72
2013-7-2,76,68,62,69,64,62,100,88,64,30.24,30.03,8,1,8,0.21
2013-7-3,72,66,61,70,64,60,98,92,82,30.30,30.18,6,0,6,3.32
2013-7-4,74,66,61,68,64,60,100,92,72,30.33,30.21,8,1,8,2.60
2013-7-5,78,69,64,68,64,60,99,85,58,30.33,30.27,11,1,11,2.15
2013-7-6,78,70,65,68,65,62,98,83,62,30.33,30.21,10,1,10,2.15
2013-7-7,78,70,66,71,67,65,100,91,69,30.27,30.18,3,0,3,2.15
2013-7-8,80,71,65,69,64,60,99,80,53,30.33,30.21,4,0,5,0.00
2013-7-9,83,72,62,66,62,58,91,71,46,30.30,30.15,6,0,6,46.99
2013-7-10,82,71,65,69,65,61,95,81,60,30.24,30.06,57,0,57,0.25
2013-7-11,79,71,67,70,66,62,98,85,66,30.12,30.00,4,0,4,0.00
2013-7-12,80,70,61,65,61,56,95,75,47,30.12,30.00,6,1,6,0.67
2013-7-13,75,67,61,64,61,59,96,81,63,30.41,30.09,57,2,57,7.00
2013-7-14,71,68,66,68,66,63,97,93,81,30.39,30.24,13,2,13,1.94
2013-7-15,79,71,66,66,62,56,97,76,52,30.44,30.39,8,2,8,0.24
2013-7-16,83,71,62,67,62,59,90,76,45,30.47,30.36,5,0,5,16.60
2013-7-17,81,70,66,69,66,62,100,88,63,30.41,30.30,6,0,6,1.85
2013-7-18,82,72,64,71,66,63,100,84,55,30.36,30.21,6,1,6,1.73
2013-7-19,86,73,65,69,64,60,92,76,49,30.27,30.12,6,1,6,1.73
2013-7-20,79,71,66,70,66,60,92,83,67,30.18,30.06,9,0,9,0.76
2013-7-21,78,70,65,71,66,62,95,89,70,30.15,30.03,4,0,4,0.78
2013-7-22,81,71,63,70,65,62,98,83,57,30.15,29.94,5,0,5,1.16
2013-7-23,78,70,66,70,65,62,99,86,61,30.03,29.91,6,0,6,0.09
2013-7-24,80,70,64,70,63,58,96,80,54,30.03,29.91,4,0,4,0.09
2013-7-25,79,69,63,64,59,53,92,71,44,30.18,29.97,6,0,6,0.09
2013-7-26,81,68,58,64,59,55,89,74,47,30.21,30.12,8,1,8,0.09
2013-7-27,78,69,65,69,63,58,97,81,53,30.15,30.00,6,0,6,1.18
2013-7-28,79,69,63,68,61,56,98,78,49,30.15,30.03,7,0,7,0.42
2013-7-29,78,66,58,58,54,48,88,66,36,30.53,30.15,6,1,6,0.00
2013-7-30,79,66,56,59,54,50,83,67,43,30.56,30.30,6,0,6,0.00
2013-7-31,72,66,62,65,62,58,95,85,73,30.36,30.09,3,0,3,0.42
2013-8-1,77,70,64,69,64,60,98,84,59,30.15,30.03,57,0,57,0.29
2013-8-2,80,69,60,62,59,55,93,73,44,30.18,30.09,5,0,5,0.04
2013-8-3,80,70,62,65,60,56,92,74,47,30.18,30.09,5,0,5,0.00
2013-8-4,78,70,65,66,60,52,91,71,44,30.18,30.09,6,0,6,0.00
2013-8-5,79,69,60,62,59,55,85,70,51,30.21,30.09,6,1,6,0.00
2013-8-6,81,71,65,63,61,58,84,71,46,30.15,30.09,5,1,5,0.00
2013-8-7,74,70,66,68,65,62,93,85,72,30.18,30.12,5,0,5,0.08
2013-8-8,81,71,65,69,66,63,97,84,61,30.18,30.15,6,0,6,0.00
2013-8-9,84,73,66,69,66,64,94,80,54,30.24,30.15,6,0,6,0.00
2013-8-10,82,72,67,70,67,62,94,84,61,30.27,30.21,6,0,6,0.08
2013-8-11,81,72,65,71,66,64,97,81,59,30.30,30.18,6,0,6,0.00
2013-8-12,83,73,67,68,65,63,91,78,54,30.27,30.09,6,0,6,0.00
2013-8-13,80,70,66,70,66,63,97,85,59,30.15,29.97,6,0,6,0.42
2013-8-14,71,66,59,64,55,49,93,70,49,30.18,30.03,4,0,4,0.04
2013-8-15,68,62,57,55,51,47,82,69,55,30.24,30.15,10,2,10,0.04
2013-8-16,70,63,56,54,51,47,86,67,47,30.27,30.18,9,2,9,0.00
2013-8-17,68,63,59,58,53,46,86,71,56,30.44,30.21,9,3,9,0.00
2013-8-18,75,66,61,65,61,58,95,86,57,30.47,30.27,6,0,6,0.54
2013-8-19,73,67,62,67,64,62,99,90,69,30.47,30.21,4,0,4,0.46
2013-8-20,77,69,64,66,64,60,95,83,59,30.36,30.24,5,1,5,0.08
2013-8-21,75,68,63,67,64,62,97,87,70,30.39,30.24,4,0,4,0.08
2013-8-22,79,70,63,67,62,58,91,77,56,30.33,30.15,5,0,5,0.08
2013-8-23,78,68,62,66,62,57,96,84,56,30.24,30.15,6,0,6,0.41
2013-8-24,73,67,62,64,57,49,98,74,45,30.44,30.21,11,2,11,0.08
2013-8-25,73,63,54,55,51,48,81,66,45,30.59,30.39,7,1,7,0.00
2013-8-26,75,64,55,59,55,50,86,73,49,30.62,30.36,5,0,5,0.00
2013-8-27,77,68,59,64,60,55,91,77,57,30.50,30.09,6,0,6,0.00
2013-8-28,81,71,64,66,63,60,90,76,57,30.18,29.94,5,0,5,0.00
2013-8-29,82,74,68,68,64,60,86,73,49,30.00,29.85,6,1,6,0.00
2013-8-30,78,71,68,67,65,63,92,80,63,30.03,29.88,8,1,8,0.00
2013-8-31,80,71,66,70,65,63,92,82,65,29.94,29.82,4,0,4,0.00
2013-9-1,83,70,66,67,65,61,92,83,53,29.88,29.76,5,0,5,0.67
2013-9-2,79,70,64,67,64,63,97,82,58,29.97,29.79,6,0,6,0.67
2013-9-3,74,68,62,65,62,57,96,80,56,30.06,29.94,6,0,6,0.29
2013-9-4,78,67,58,62,57,54,90,72,46,30.18,30.03,6,0,6,0.29
2013-9-5,75,65,58,62,54,48,89,68,42,30.21,30.12,4,0,4,0.29
2013-9-6,75,65,55,58,54,49,85,68,45,30.21,30.09,6,1,6,0.29
2013-9-7,76,65,56,62,57,52,91,76,56,30.27,30.06,6,0,6,0.29
2013-9-8,76,68,61,64,60,57,93,77,55,30.12,30.00,6,0,6,0.00
2013-9-9,77,68,61,66,61,58,92,81,57,30.18,30.06,8,1,8,0.00
2013-9-10,79,68,60,63,60,-46,94,76,46,30.30,30.18,10,1,10,0.00
2013-9-11,78,69,62,64,61,57,86,77,59,30.30,30.15,4,0,4,0.00
2013-9-12,76,69,64,69,64,60,94,86,71,30.15,29.94,6,0,6,0.33
2013-9-13,72,64,55,63,55,45,97,74,46,29.97,29.88,8,1,8,0.09
2013-9-14,69,58,50,52,48,44,83,69,45,30.15,29.94,6,1,6,0.00
2013-9-15,70,60,50,57,52,46,86,76,57,30.21,30.09,6,1,6,0.00
2013-9-16,74,64,55,62,55,52,91,74,48,30.21,30.12,5,0,5,0.00
2013-9-17,64,60,57,56,50,44,83,69,56,30.30,30.18,10,2,10,0.00
2013-9-18,64,60,55,58,52,46,93,76,64,30.27,30.15,8,1,8,0.00
2013-9-19,72,64,60,64,60,58,96,85,67,30.21,30.09,6,0,6,0.00
2013-9-20,75,66,59,65,59,57,95,80,54,30.12,29.94,4,0,4,0.00
2013-9-21,66,62,59,64,60,58,97,93,87,29.97,29.76,5,0,5,0.66
2013-9-22,65,59,53,59,52,47,97,78,55,29.97,29.82,6,0,6,0.66
2013-9-23,69,58,50,55,51,46,93,79,56,30.09,29.94,6,0,6,0.00
2013-9-24,70,60,52,56,53,48,90,77,53,30.12,30.00,6,1,6,0.00
2013-9-25,62,59,58,60,57,54,96,91,86,30.03,29.91,6,1,6,0.37
2013-9-26,68,60,55,58,55,51,96,83,63,30.09,29.94,5,0,5,0.00
2013-9-27,68,59,52,55,52,49,94,77,51,30.21,30.06,5,1,5,0.00
2013-9-28,67,59,50,52,50,45,84,72,55,30.27,30.15,6,1,6,0.00
2013-9-29,68,59,53,53,49,45,78,69,51,30.18,30.06,5,1,5,0.00
2013-9-30,69,61,56,55,52,50,86,74,53,30.15,30.03,4,0,4,0.00
2013-10-1,71,60,52,56,52,47,90,75,52,30.18,30.06,6,0,6,0.00
2013-10-2,71,61,53,58,52,49,87,75,49,30.21,30.12,6,0,6,0.00
2013-10-3,71,62,54,59,54,51,89,77,56,30.21,30.15,4,0,4,0.00
2013-10-4,72,64,56,60,56,52,91,78,53,30.33,30.18,6,0,6,0.00
2013-10-5,74,64,55,62,57,53,94,81,54,30.39,30.06,7,0,7,0.00
2013-10-6,74,63,54,64,57,51,95,82,53,30.09,29.91,8,1,8,0.00
2013-10-7,65,58,51,60,54,45,97,84,60,30.06,29.88,5,0,5,1.32
2013-10-8,61,53,44,46,42,38,91,68,47,30.18,30.03,11,2,11,1.32
2013-10-9,66,56,43,48,44,37,83,65,48,30.21,30.09,6,1,6,0.00
2013-10-10,66,55,47,48,45,41,86,70,47,30.15,30.03,6,1,6,0.00
2013-10-11,66,58,50,52,48,44,90,71,46,30.09,30.00,6,1,6,0.00
2013-10-12,68,61,54,57,52,47,90,74,57,30.15,30.00,6,0,6,0.00
2013-10-13,69,63,58,60,57,54,95,83,60,30.27,30.15,6,0,6,0.08
2013-10-14,66,60,56,59,55,51,97,85,66,30.27,30.12,8,1,8,0.00
2013-10-15,67,59,53,54,50,49,87,74,55,30.21,30.06,7,1,7,0.00
2013-10-16,68,59,50,54,50,46,86,73,54,30.12,29.97,5,0,5,0.00
2013-10-17,68,61,56,62,56,49,95,85,73,30.03,29.85,6,0,6,0.04
2013-10-18,64,56,50,48,45,42,81,67,46,30.03,29.88,5,1,5,0.00
2013-10-19,62,55,51,51,45,37,87,71,44,30.00,29.82,6,0,6,0.00
2013-10-20,60,53,44,37,34,29,72,50,33,30.06,29.97,5,1,5,0.00
2013-10-21,62,50,39,45,39,33,80,68,41,30.12,29.94,6,1,6,0.00
2013-10-22,65,55,49,51,43,37,91,66,39,30.03,29.79,10,1,10,0.04
2013-10-23,51,46,37,41,32,22,79,59,48,29.97,29.71,12,1,12,1.52
2013-10-24,49,41,33,32,26,20,68,56,46,30.09,29.94,8,1,8,0.00
2013-10-25,41,36,30,29,21,18,64,54,44,30.30,30.06,8,1,8,0.00
2013-10-26,54,39,24,34,23,16,74,54,32,30.24,30.00,9,1,9,0.00
2013-10-27,63,54,47,45,36,31,70,53,41,30.09,30.00,57,1,57,0.00
2013-10-28,61,56,52,50,46,43,84,70,54,30.24,30.09,3,0,3,0.00
2013-10-29,65,55,48,48,43,38,87,66,41,30.30,30.18,5,1,5,0.00
2013-10-30,71,60,53,51,46,42,76,63,43,30.27,30.12,8,1,8,0.00
2013-10-31,64,59,51,53,48,45,90,68,50,30.15,29.79,13,2,13,0.00
2013-11-1,69,62,51,54,47,37,84,59,39,29.82,29.59,18,2,18,0.08
2013-11-2,54,47,40,40,35,31,77,64,48,29.97,29.71,10,1,10,0.09
2013-11-3,50,44,36,33,29,25,72,57,41,30.24,29.94,7,1,7,0.09
2013-11-4,51,43,34,27,24,22,70,48,38,30.39,30.21,12,3,12,0.09
2013-11-5,55,45,35,38,26,20,72,48,31,30.41,30.30,9,2,9,0.09
2013-11-6,64,53,41,47,41,27,86,66,46,30.33,30.09,8,1,8,0.09
2013-11-7,56,48,38,53,38,0,95,71,48,30.12,30.00,12,1,12,0.08
2013-11-8,46,38,32,23,20,16,59,48,35,30.24,30.06,66,2,66,0.08
2013-11-9,56,40,28,30,21,17,66,48,32,30.27,30.12,11,1,11,0.08
2013-11-10,59,48,39,32,25,18,49,40,32,30.21,30.09,18,2,18,0.00
2013-11-11,58,43,30,27,20,15,57,42,28,30.27,30.06,9,1,9,0.00
2013-11-12,51,38,24,28,19,8,56,47,39,30.39,30.00,22,2,22,0.00
2013-11-13,37,28,20,15,11,7,57,49,40,30.41,30.30,12,2,12,0.00
2013-11-14,52,36,21,24,15,9,61,45,29,30.36,30.18,7,2,11,0.00
2013-11-15,51,39,28,42,25,11,88,60,39,30.27,30.09,6,1,6,0.21
2013-11-16,57,50,44,49,45,41,94,86,67,30.21,30.09,12,2,12,0.00
2013-11-17,62,54,50,55,51,47,97,88,67,30.18,29.85,13,2,13,0.50
2013-11-18,58,52,41,58,39,23,100,65,38,30.00,29.79,17,3,17,0.08
2013-11-19,47,40,34,24,21,19,54,46,37,30.09,30.00,24,2,24,0.00
2013-11-20,46,39,33,23,20,18,56,47,38,30.33,30.09,51,8,51,0.00
2013-11-21,57,46,36,47,37,21,88,70,53,30.36,30.24,15,4,15,0.00
2013-11-22,64,54,49,54,49,45,96,84,63,30.30,30.06,8,1,8,0.00
2013-11-23,55,45,30,51,34,12,88,66,45,30.15,30.06,22,3,22,0.00
2013-11-24,30,25,20,12,6,2,50,44,37,30.30,30.15,19,3,19,0.00
2013-11-25,34,26,18,17,8,2,63,44,38,30.33,30.12,11,2,11,0.04
2013-11-26,42,38,28,42,35,17,100,91,62,30.12,29.59,18,2,18,1.66
2013-11-27,42,29,20,41,20,7,96,72,55,30.09,29.59,23,4,23,0.09
2013-11-28,40,27,13,21,13,6,74,57,41,30.27,30.09,14,2,14,0.12
2013-11-29,46,33,22,24,18,14,73,55,37,30.41,30.27,21,2,21,0.12
2013-11-30,42,34,27,22,17,14,61,50,43,30.44,30.18,13,4,13,0.00
2013-12-1,50,35,24,31,23,15,75,61,42,30.21,29.94,10,1,10,0.00
2013-12-2,49,40,30,34,29,23,81,65,50,29.97,29.71,9,1,9,0.00
2013-12-3,55,46,39,44,38,29,89,75,59,29.91,29.76,11,2,11,0.04
2013-12-4,56,51,44,49,47,41,93,85,72,30.03,29.88,13,2,13,0.04
2013-12-5,64,55,48,58,53,47,99,91,69,30.09,29.94,11,1,11,0.08
2013-12-6,69,61,54,63,56,50,100,86,56,30.03,29.88,24,2,24,0.63
2013-12-7,54,45,39,51,38,33,95,78,62,30.24,29.97,23,2,23,0.63
2013-12-8,39,34,33,35,33,31,99,93,80,30.21,30.06,18,5,20,0.63
2013-12-9,53,43,34,53,42,33,100,96,86,30.06,29.94,4,1,4,0.63
2013-12-10,44,37,26,43,30,14,99,77,55,30.18,29.82,15,1,15,0.50
2013-12-11,44,32,20,22,16,12,77,54,35,30.27,30.12,9,2,10,0.50
2013-12-12,35,29,24,15,11,7,56,46,34,30.27,30.15,8,1,8,0.00
2013-12-13,46,32,21,23,14,6,57,46,35,30.21,30.06,6,1,6,0.00
2013-12-14,40,37,34,38,28,16,95,73,42,30.12,29.65,13,2,13,0.29
2013-12-15,42,36,29,41,28,20,95,74,56,30.00,29.65,14,2,14,0.00
2013-12-16,48,37,30,26,22,21,72,56,40,30.06,29.94,15,2,15,0.00
2013-12-17,52,46,35,30,26,17,60,46,40,30.06,29.82,15,4,15,0.00
2013-12-18,42,33,26,17,12,8,51,42,33,30.18,30.00,17,2,17,0.00
2013-12-19,59,40,25,31,18,9,58,43,30,30.18,30.06,10,1,10,0.00
2013-12-20,60,45,34,35,25,17,56,46,38,30.15,30.00,6,1,6,0.00
2013-12-21,64,54,41,58,46,28,93,75,54,30.06,29.88,14,2,14,4.89
2013-12-22,64,57,54,56,53,49,99,85,62,30.06,29.88,22,2,22,2.45
2013-12-23,54,45,32,54,42,24,99,87,72,30.09,29.94,10,1,10,1.04
2013-12-24,65,30,21,47,16,5,77,58,30,30.21,30.09,10,2,10,1.04
2013-12-25,35,25,16,15,9,6,68,51,42,30.30,30.12,9,1,9,1.04
2013-12-26,43,30,20,22,16,8,71,55,42,30.18,30.09,10,1,10,0.00
2013-12-27,45,31,22,24,18,15,77,59,41,30.33,30.18,6,1,6,0.00
2013-12-28,44,34,23,42,23,14,100,67,43,30.30,29.94,12,0,12,0.16
2013-12-29,48,41,35,46,40,32,100,95,85,29.97,26.93,15,2,15,0.33
2013-12-30,45,39,35,36,33,29,87,80,63,29.97,26.90,9,1,9,0.00
2013-12-31,38,32,26,30,19,14,84,59,40,30.21,29.91,10,1,11,0.00
2014-1-1,42,31,23,22,19,15,76,61,43,30.21,30.03,8,0,8,0.00
2014-1-2,40,31,17,39,26,10,97,81,70,30.03,29.59,12,1,12,0.12